TURKSAT 5A

Last updated on Sat Nov 15 2025 00:02:52 GMT+0000 (Coordinated Universal Time)

1 47306U 21001A 25318.03725397 .00000155 00000+0 00000+0 0 9998 2 47306 0.0295 93.4025 0000275 236.5534 127.7795 1.00271939 17810
UTC large
Height (km)
Speed (km/s)
/
Latitude / Longitude
Inclination (degrees)
Orbital Period (minutes)
Azimuth
Elevation
Range (km)
Doppler Factor

Next 0 passes for location: London (51.5072 / 0.1276)

Sorry there are no passes over London.